• In Uzbekistan
  • List of Countries
  • For 7 days
  • Water Temperature
  • Satellite Maps
  • Weather Map
  • Weather Widgets
  • user-avatar
    Login

    Hourly Weather Dorog

    Today, 18 July, Wednesday

    Time Temperature Precipitation Wind Pressure Humidity
    00:00 +20°C° 0.1 mm 5 mps 741 mmHg 79%
    01:00 +19°C° 0 mm 5 mps 741 mmHg 79%
    02:00 +19°C° 0.2 mm 5 mps 741 mmHg 80%
    03:00 +19°C° 0.2 mm 6 mps 741 mmHg 80%
    04:00 +19°C° 0.2 mm 6 mps 741 mmHg 80%
    05:00 +20°C° 0.5 mm 7 mps 741 mmHg 79%
    06:00 +20°C° 0.5 mm 7 mps 741 mmHg 77%
    07:00 +21°C° 0.5 mm 8 mps 741 mmHg 75%
    08:00 +21°C° 0.4 mm 8 mps 741 mmHg 73%
    09:00 +22°C° 0.4 mm 8 mps 741 mmHg 71%
    10:00 +22°C° 0.4 mm 8 mps 741 mmHg 69%
    11:00 +23°C° 0.1 mm 8 mps 741 mmHg 68%
    12:00 +23°C° 0.1 mm 9 mps 742 mmHg 66%
    13:00 +23°C° 0.1 mm 9 mps 742 mmHg 65%
    14:00 +22°C° 0.2 mm 9 mps 742 mmHg 67%
    15:00 +22°C° 0.2 mm 10 mps 742 mmHg 70%
    16:00 +21°C° 0.2 mm 10 mps 742 mmHg 73%
    17:00 +21°C° 0.3 mm 9 mps 742 mmHg 75%
    18:00 +19°C° 0.3 mm 9 mps 742 mmHg 78%
    19:00 +20°C° 0.3 mm 8 mps 742 mmHg 80%
    20:00 +20°C° 0.4 mm 8 mps 742 mmHg 82%
    21:00 +20°C° 0.4 mm 7 mps 742 mmHg 84%
    22:00 +18°C° 0.4 mm 7 mps 742 mmHg 86%
    23:00 +19°C° 0.3 mm 6 mps 742 mmHg 87%

    Tomorrow, 19 July, Thursday

    Time Temperature Precipitation Wind Pressure Humidity
    00:00 +19°C° 0.3 mm 6 mps 742 mmHg 88%
    01:00 +19°C° 0.3 mm 6 mps 742 mmHg 89%
    02:00 +19°C° 0.2 mm 5 mps 742 mmHg 88%
    03:00 +19°C° 0.2 mm 5 mps 742 mmHg 88%
    04:00 +19°C° 0.2 mm 5 mps 743 mmHg 88%
    05:00 +19°C° 0.1 mm 5 mps 743 mmHg 86%
    06:00 +20°C° 0.1 mm 5 mps 743 mmHg 85%
    07:00 +20°C° 0.1 mm 6 mps 743 mmHg 83%
    08:00 +21°C° 0 mm 6 mps 743 mmHg 78%
    09:00 +23°C° 0 mm 6 mps 744 mmHg 72%
    10:00 +24°C° 0 mm 6 mps 744 mmHg 67%
    11:00 +26°C° 0 mm 6 mps 744 mmHg 63%
    12:00 +27°C° 0 mm 6 mps 744 mmHg 59%
    13:00 +28°C° 0 mm 7 mps 744 mmHg 55%
    14:00 +28°C° 0 mm 7 mps 744 mmHg 55%
    15:00 +28°C° 0 mm 7 mps 744 mmHg 56%
    16:00 +27°C° 0 mm 7 mps 744 mmHg 57%
    17:00 +26°C° 0 mm 6 mps 744 mmHg 61%
    18:00 +24°C° 0 mm 6 mps 744 mmHg 65%
    19:00 +23°C° 0 mm 5 mps 744 mmHg 69%
    20:00 +22°C° 0 mm 5 mps 744 mmHg 72%
    21:00 +21°C° 0 mm 4 mps 745 mmHg 74%
    22:00 +20°C° 0 mm 4 mps 745 mmHg 77%
    23:00 +20°C° 0 mm 4 mps 745 mmHg 79%

    Day after tomorrow, 20 July, Friday

    Time Temperature Precipitation Wind Pressure Humidity
    00:00 +20°C° 0 mm 4 mps 745 mmHg 80%
    01:00 +19°C° 0 mm 3 mps 745 mmHg 82%
    02:00 +19°C° 0 mm 3 mps 745 mmHg 83%
    03:00 +19°C° 0 mm 3 mps 745 mmHg 84%
    04:00 +19°C° 0 mm 3 mps 744 mmHg 85%
    05:00 +20°C° 0 mm 4 mps 745 mmHg 81%
    06:00 +21°C° 0 mm 4 mps 745 mmHg 78%
    07:00 +22°C° 0 mm 4 mps 745 mmHg 74%
    08:00 +23°C° 0 mm 4 mps 745 mmHg 69%
    09:00 +26°C° 0 mm 4 mps 745 mmHg 63%
    10:00 +27°C° 0 mm 4 mps 745 mmHg 57%
    11:00 +28°C° 0.1 mm 4 mps 745 mmHg 55%
    12:00 +29°C° 0.1 mm 4 mps 745 mmHg 54%
    13:00 +29°C° 0.1 mm 4 mps 745 mmHg 52%
    14:00 +29°C° 0.1 mm 4 mps 744 mmHg 51%
    15:00 +29°C° 0.1 mm 4 mps 744 mmHg 51%
    16:00 +30°C° 0.1 mm 4 mps 744 mmHg 51%
    17:00 +28°C° 0 mm 3 mps 744 mmHg 57%
    18:00 +27°C° 0 mm 3 mps 744 mmHg 62%
    19:00 +26°C° 0 mm 2 mps 743 mmHg 68%
    20:00 +24°C° 0 mm 2 mps 744 mmHg 72%
    21:00 +23°C° 0 mm 2 mps 744 mmHg 76%
    22:00 +22°C° 0 mm 1 mps 744 mmHg 80%
    23:00 +21°C° 0 mm 1 mps 744 mmHg 82%

    21 July, Saturday

    Time Temperature Precipitation Wind Pressure Humidity
    00:00 +21°C° 0 mm 1 mps 744 mmHg 83%
    01:00 +20°C° 0 mm 1 mps 744 mmHg 85%
    02:00 +20°C° 0 mm 1 mps 743 mmHg 86%
    03:00 +20°C° 0 mm 1 mps 743 mmHg 87%
    04:00 +17°C° 0 mm 0 mps 743 mmHg 88%
    05:00 +21°C° 0 mm 1 mps 743 mmHg 82%
    06:00 +22°C° 0 mm 1 mps 743 mmHg 76%
    07:00 +24°C° 0 mm 1 mps 743 mmHg 70%
    08:00 +26°C° 0 mm 1 mps 743 mmHg 64%
    09:00 +28°C° 0 mm 1 mps 743 mmHg 57%
    10:00 +29°C° 0 mm 1 mps 743 mmHg 50%
    11:00 +30°C° 0.1 mm 1 mps 743 mmHg 47%
    12:00 +31°C° 0.1 mm 2 mps 742 mmHg 44%
    13:00 +32°C° 0.1 mm 2 mps 742 mmHg 41%
    14:00 +32°C° 0 mm 2 mps 742 mmHg 42%
    15:00 +32°C° 0 mm 2 mps 741 mmHg 42%
    16:00 +32°C° 0 mm 2 mps 741 mmHg 43%
    17:00 +30°C° 0.3 mm 2 mps 741 mmHg 47%
    18:00 +29°C° 0.3 mm 2 mps 741 mmHg 52%
    19:00 +28°C° 0.3 mm 1 mps 741 mmHg 56%
    20:00 +26°C° 0.9 mm 1 mps 741 mmHg 62%
    21:00 +25°C° 0.9 mm 2 mps 741 mmHg 69%
    22:00 +23°C° 0.9 mm 2 mps 741 mmHg 75%
    23:00 +23°C° 0.3 mm 2 mps 741 mmHg 78%

    22 July, Sunday

    Time Temperature Precipitation Wind Pressure Humidity
    00:00 +21°C° 0.3 mm 2 mps 741 mmHg 81%
    01:00 +20°C° 0.3 mm 2 mps 741 mmHg 84%
    02:00 +20°C° 0.8 mm 2 mps 741 mmHg 86%
    03:00 +20°C° 0.8 mm 2 mps 741 mmHg 88%
    04:00 +19°C° 0.8 mm 2 mps 741 mmHg 90%
    05:00 +20°C° 0 mm 2 mps 741 mmHg 88%
    06:00 +21°C° 0 mm 2 mps 741 mmHg 85%
    07:00 +23°C° 0 mm 2 mps 741 mmHg 82%
    08:00 +24°C° 0.2 mm 2 mps 741 mmHg 77%
    09:00 +26°C° 0.2 mm 2 mps 740 mmHg 72%
    10:00 +27°C° 0.2 mm 2 mps 740 mmHg 67%
    11:00 +27°C° 0.9 mm 2 mps 740 mmHg 65%
    12:00 +28°C° 0.9 mm 2 mps 740 mmHg 64%
    13:00 +28°C° 0.9 mm 2 mps 740 mmHg 62%
    14:00 +28°C° 1.3 mm 2 mps 740 mmHg 62%
    15:00 +29°C° 1.3 mm 2 mps 740 mmHg 62%
    16:00 +29°C° 1.3 mm 3 mps 739 mmHg 61%
    17:00 +27°C° 0.9 mm 2 mps 739 mmHg 67%
    18:00 +26°C° 0.9 mm 2 mps 739 mmHg 72%
    19:00 +25°C° 0.9 mm 2 mps 739 mmHg 77%
    20:00 +24°C° 1.2 mm 2 mps 740 mmHg 81%
    21:00 +23°C° 1.2 mm 2 mps 740 mmHg 84%
    22:00 +21°C° 1.2 mm 2 mps 740 mmHg 87%
    23:00 +20°C° 0.5 mm 2 mps 740 mmHg 88%

    23 July, Monday

    Time Temperature Precipitation Wind Pressure Humidity
    00:00 +20°C° 0.5 mm 2 mps 740 mmHg 88%
    01:00 +20°C° 0.5 mm 2 mps 740 mmHg 89%
    02:00 +20°C° 0.9 mm 3 mps 740 mmHg 89%
    03:00 +19°C° 0.9 mm 3 mps 741 mmHg 88%
    04:00 +19°C° 0.9 mm 3 mps 741 mmHg 88%
    05:00 +20°C° 0.2 mm 3 mps 741 mmHg 85%
    06:00 +21°C° 0.2 mm 3 mps 742 mmHg 82%
    07:00 +21°C° 0.2 mm 3 mps 742 mmHg 79%
    08:00 +23°C° 0 mm 4 mps 742 mmHg 72%
    09:00 +26°C° 0 mm 4 mps 742 mmHg 64%
    10:00 +27°C° 0 mm 4 mps 743 mmHg 57%
    11:00 +28°C° 0.1 mm 4 mps 742 mmHg 54%
    12:00 +29°C° 0.1 mm 4 mps 742 mmHg 50%
    13:00 +30°C° 0.1 mm 4 mps 742 mmHg 47%
    14:00 +30°C° 0.1 mm 4 mps 742 mmHg 49%
    15:00 +30°C° 0.1 mm 4 mps 742 mmHg 50%
    16:00 +29°C° 0.1 mm 4 mps 742 mmHg 52%
    17:00 +28°C° 0 mm 4 mps 742 mmHg 55%
    18:00 +27°C° 0 mm 3 mps 743 mmHg 59%
    19:00 +26°C° 0 mm 3 mps 743 mmHg 62%
    20:00 +25°C° 0 mm 3 mps 743 mmHg 63%
    21:00 +24°C° 0 mm 3 mps 744 mmHg 64%
    22:00 +22°C° 0 mm 3 mps 744 mmHg 66%
    23:00 +21°C° 0 mm 3 mps 744 mmHg 68%
    Show more